Precipitable_Water
0.77 0.78 0.80 0.81 0.81 0.82 0.76 0.60 0.37 0.59 0.67 0.34 0.37 0.23 0.22 0.32 0.30 0.33 0.36 0.44 0.40 0.34 0.44 0.39 0.35 0.40 0.37 0.39 0.36 0.32 0.35 0.32 0.28 0.32 0.36 0.36 0.41 0.36 0.36 0.29 0.27 0.31 0.29 0.28
0.77 0.77 0.78 0.80 0.82 0.82 0.69 0.49 0.48 0.62 0.59 0.25 0.26 0.22 0.20 0.29 0.31 0.30 0.39 0.39 0.39 0.45 0.46 0.38 0.38 0.40 0.43 0.42 0.35 0.34 0.36 0.31 0.26 0.29 0.32 0.38 0.33 0.39 0.42 0.40 0.37 0.30 0.31 0.29
0.77 0.77 0.77 0.80 0.81 0.82 0.71 0.51 0.36 0.48 0.51 0.38 0.27 0.19 0.19 0.21 0.29 0.37 0.35 0.43 0.42 0.39 0.38 0.47 0.42 0.42 0.45 0.45 0.39 0.38 0.39 0.31 0.29 0.23 0.27 0.33 0.28 0.30 0.35 0.36 0.32 0.30 0.29 0.29
0.79 0.79 0.77 0.79 0.81 0.81 0.69 0.50 0.37 0.42 0.31 0.33 0.30 0.29 0.24 0.20 0.18 0.30 0.41 0.41 0.42 0.40 0.35 0.36 0.44 0.48 0.50 0.49 0.39 0.41 0.38 0.30 0.32 0.30 0.33 0.32 0.29 0.30 0.30 0.30 0.32 0.28 0.31 0.31
0.79 0.80 0.77 0.79 0.81 0.81 0.62 0.43 0.38 0.41 0.39 0.40 0.33 0.30 0.24 0.22 0.21 0.21 0.26 0.35 0.38 0.42 0.38 0.43 0.43 0.50 0.50 0.44 0.44 0.36 0.40 0.34 0.35 0.29 0.32 0.32 0.28 0.28 0.29 0.28 0.28 0.28 0.28 0.28
0.68 0.76 0.76 0.76 0.80 0.79 0.57 0.55 0.50 0.43 0.38 0.38 0.35 0.27 0.25 0.21 0.24 0.23 0.27 0.30 0.36 0.39 0.44 0.59 0.59 0.57 0.61 0.57 0.55 0.41 0.40 0.38 0.33 0.27 0.33 0.32 0.27 0.27 0.29 0.29 0.31 0.32 0.28 0.33
0.65 0.64 0.75 0.76 0.78 0.77 0.64 0.54 0.50 0.42 0.33 0.38 0.31 0.32 0.29 0.25 0.22 0.22 0.26 0.36 0.34 0.40 0.62 0.59 0.65 0.55 0.56 0.56 0.54 0.55 0.44 0.42 0.36 0.32 0.34 0.24 0.34 0.37 0.35 0.32 0.33 0.36 0.36 0.35
0.58 0.61 0.59 0.80 0.75 0.79 0.66 0.61 0.52 0.42 0.35 0.37 0.37 0.35 0.30 0.31 0.27 0.28 0.28 0.32 0.48 0.48 0.58 0.40 0.35 0.44 0.45 0.46 0.51 0.51 0.54 0.46 0.36 0.34 0.30 0.31 0.33 0.35 0.32 0.30 0.30 0.36 0.35 0.36
0.61 0.61 0.62 0.60 0.73 0.78 0.69 0.63 0.61 0.50 0.38 0.35 0.40 0.38 0.36 0.30 0.28 0.26 0.31 0.37 0.45 0.57 0.43 0.37 0.24 0.23 0.35 0.41 0.45 0.55 0.53 0.53 0.41 0.37 0.29 0.25 0.33 0.40 0.42 0.38 0.30 0.37 0.40 0.41
0.62 0.63 0.65 0.60 0.64 0.73 0.70 0.64 0.65 0.53 0.40 0.44 0.44 0.37 0.37 0.35 0.30 0.25 0.28 0.39 0.47 0.47 0.37 0.33 0.26 0.25 0.36 0.36 0.44 0.44 0.45 0.47 0.40 0.37 0.34 0.34 0.40 0.43 0.45 0.29 0.26 0.40 0.43 0.45
0.63 0.64 0.66 0.64 0.61 0.67 0.69 0.64 0.66 0.54 0.44 0.45 0.48 0.49 0.41 0.39 0.33 0.27 0.30 0.39 0.45 0.47 0.34 0.31 0.30 0.32 0.38 0.33 0.41 0.51 0.43 0.40 0.40 0.43 0.38 0.33 0.51 0.46 0.36 0.37 0.46 0.49 0.48 0.46
0.67 0.67 0.67 0.63 0.64 0.70 0.71 0.60 0.67 0.66 0.51 0.47 0.61 0.53 0.58 0.46 0.38 0.34 0.33 0.45 0.37 0.40 0.37 0.34 0.32 0.35 0.38 0.34 0.30 0.44 0.46 0.53 0.46 0.46 0.46 0.57 0.56 0.50 0.52 0.53 0.51 0.55 0.52 0.53
0.67 0.68 0.64 0.64 0.66 0.72 0.69 0.64 0.67 0.61 0.50 0.50 0.53 0.47 0.54 0.63 0.56 0.54 0.38 0.45 0.44 0.43 0.44 0.43 0.42 0.37 0.39 0.31 0.34 0.33 0.37 0.41 0.45 0.52 0.55 0.57 0.60 0.58 0.58 0.59 0.56 0.59 0.60 0.59
0.66 0.63 0.63 0.71 0.72 0.70 0.70 0.63 0.66 0.56 0.53 0.40 0.41 0.54 0.52 0.61 0.62 0.61 0.58 0.60 0.50 0.48 0.52 0.44 0.40 0.28 0.39 0.38 0.35 0.32 0.34 0.38 0.38 0.37 0.41 0.50 0.61 0.63 0.63 0.64 0.63 0.59 0.63 0.61
0.61 0.64 0.69 0.72 0.69 0.70 0.69 0.67 0.64 0.62 0.46 0.35 0.35 0.50 0.56 0.59 0.65 0.60 0.59 0.55 0.52 0.53 0.47 0.41 0.36 0.30 0.27 0.40 0.39 0.35 0.41 0.41 0.35 0.32 0.39 0.44 0.49 0.64 0.65 0.61 0.64 0.66 0.64 0.61
0.63 0.72 0.72 0.68 0.68 0.68 0.62 0.49 0.64 0.66 0.63 0.41 0.31 0.47 0.47 0.54 0.58 0.65 0.66 0.63 0.51 0.49 0.41 0.38 0.31 0.28 0.31 0.29 0.28 0.32 0.34 0.42 0.46 0.45 0.53 0.54 0.59 0.63 0.65 0.64 0.66 0.69 0.67 0.65
0.68 0.71 0.69 0.68 0.67 0.62 0.52 0.46 0.54 0.64 0.59 0.41 0.30 0.33 0.49 0.52 0.51 0.48 0.56 0.63 0.55 0.52 0.48 0.47 0.42 0.38 0.40 0.36 0.27 0.30 0.40 0.48 0.57 0.57 0.54 0.47 0.51 0.53 0.60 0.61 0.66 0.68 0.67 0.65
0.69 0.68 0.68 0.67 0.67 0.64 0.54 0.58 0.59 0.57 0.49 0.42 0.29 0.31 0.37 0.53 0.42 0.40 0.53 0.52 0.52 0.47 0.47 0.53 0.52 0.58 0.53 0.37 0.34 0.35 0.42 0.53 0.56 0.58 0.58 0.56 0.60 0.59 0.58 0.60 0.60 0.58 0.59 0.62
0.67 0.67 0.66 0.63 0.58 0.51 0.52 0.60 0.55 0.54 0.43 0.32 0.31 0.30 0.33 0.61 0.58 0.59 0.53 0.53 0.39 0.51 0.40 0.45 0.45 0.42 0.34 0.35 0.33 0.36 0.45 0.48 0.54 0.55 0.57 0.58 0.56 0.56 0.58 0.60 0.59 0.58 0.59 0.62
0.65 0.60 0.50 0.43 0.54 0.62 0.59 0.51 0.41 0.41 0.41 0.43 0.36 0.43 0.35 0.48 0.53 0.50 0.51 0.56 0.43 0.32 0.39 0.47 0.40 0.35 0.45 0.46 0.49 0.51 0.51 0.52 0.53 0.50 0.47 0.51 0.52 0.54 0.55 0.57 0.60 0.61 0.59 0.60
0.53 0.45 0.44 0.56 0.61 0.49 0.41 0.30 0.32 0.36 0.32 0.38 0.39 0.39 0.32 0.50 0.46 0.45 0.55 0.45 0.47 0.35 0.39 0.38 0.35 0.31 0.42 0.55 0.56 0.58 0.58 0.58 0.58 0.57 0.55 0.53 0.57 0.60 0.61 0.61 0.63 0.66 0.67 0.66
0.51 0.51 0.54 0.49 0.42 0.39 0.33 0.28 0.33 0.32 0.28 0.38 0.38 0.40 0.45 0.53 0.67 0.51 0.55 0.44 0.46 0.35 0.52 0.41 0.32 0.40 0.50 0.55 0.59 0.60 0.60 0.59 0.58 0.57 0.56 0.61 0.64 0.67 0.67 0.65 0.62 0.65 0.67 0.67
0.53 0.41 0.36 0.37 0.37 0.28 0.25 0.20 0.26 0.30 0.39 0.41 0.43 0.42 0.52 0.58 0.57 0.48 0.47 0.39 0.38 0.51 0.40 0.35 0.38 0.46 0.52 0.58 0.62 0.65 0.70 0.68 0.64 0.60 0.62 0.65 0.67 0.69 0.68 0.66 0.65 0.65 0.63 0.63
0.39 0.36 0.30 0.32 0.27 0.30 0.31 0.31 0.35 0.42 0.42 0.40 0.42 0.44 0.43 0.48 0.41 0.40 0.30 0.38 0.40 0.30 0.29 0.33 0.45 0.50 0.55 0.60 0.63 0.64 0.62 0.63 0.63 0.61 0.64 0.64 0.64 0.63 0.63 0.62 0.60 0.59 0.57 0.57
0.39 0.38 0.27 0.29 0.33 0.35 0.36 0.40 0.39 0.44 0.50 0.45 0.40 0.39 0.40 0.38 0.37 0.39 0.37 0.31 0.27 0.31 0.30 0.41 0.51 0.54 0.56 0.57 0.58 0.59 0.60 0.60 0.61 0.63 0.62 0.61 0.60 0.58 0.56 0.56 0.56 0.54 0.53 0.51
0.39 0.35 0.30 0.33 0.31 0.31 0.32 0.33 0.36 0.47 0.47 0.51 0.47 0.38 0.35 0.34 0.35 0.32 0.29 0.28 0.27 0.32 0.41 0.48 0.53 0.53 0.55 0.56 0.57 0.58 0.59 0.59 0.59 0.58 0.57 0.56 0.54 0.52 0.51 0.52 0.51 0.50 0.49 0.47
0.33 0.29 0.33 0.32 0.31 0.30 0.32 0.34 0.38 0.48 0.45 0.37 0.40 0.32 0.30 0.39 0.30 0.26 0.28 0.25 0.32 0.41 0.46 0.52 0.53 0.52 0.52 0.54 0.55 0.55 0.55 0.54 0.54 0.53 0.52 0.51 0.50 0.49 0.47 0.44 0.44 0.44 0.43 0.41
Wind_Speed
43 44 44 43 41 39 38 34 31 29 33 34 37 49 54 50 50 39 35 29 29 30 28 26 30 27 31 24 34 36 31 20 21 22 21 21 18 18 19 14 15 13 15 15
45 43 44 44 43 43 39 34 32 31 37 31 38 48 57 53 47 46 38 34 33 29 25 25 28 28 25 22 33 35 32 28 22 21 18 17 19 19 17 19 16 16 13 13
47 47 47 47 46 46 42 35 32 32 39 39 37 44 53 55 53 45 43 37 32 32 30 27 22 26 28 23 24 29 33 28 29 25 21 20 22 22 21 20 17 17 19 19
50 49 49 50 50 50 47 41 37 36 36 42 40 37 40 53 55 52 43 40 34 32 28 28 26 25 22 24 27 26 31 34 28 28 24 18 20 21 23 23 22 22 19 20
51 52 52 52 54 55 50 43 39 39 33 40 42 39 40 49 54 52 51 43 40 32 30 24 24 21 24 25 26 30 31 29 31 29 25 25 22 21 21 21 21 22 21 22
55 56 55 56 58 60 51 50 49 38 42 38 39 41 38 49 50 53 51 47 38 37 31 22 20 21 20 22 20 28 29 29 28 28 26 26 28 24 22 21 22 20 21 18
56 57 57 58 61 66 54 51 45 40 37 39 40 40 38 40 53 52 49 43 44 36 28 25 23 23 21 23 25 24 28 28 28 23 19 26 22 22 22 23 23 21 21 21
52 53 55 56 61 65 58 51 50 44 38 37 38 39 37 36 44 47 48 48 37 38 25 29 27 24 22 27 28 27 27 27 26 24 25 25 24 21 19 20 22 21 22 22
47 50 52 58 56 64 58 53 53 44 39 38 37 32 36 33 37 47 46 44 39 29 34 30 31 26 25 20 23 27 27 26 27 22 28 30 26 24 19 20 23 20 22 20
47 48 48 51 58 58 59 52 55 47 39 35 31 32 31 33 34 42 45 43 37 38 32 31 30 27 28 26 19 24 25 24 27 26 23 23 23 22 18 22 16 17 18 18
49 49 47 48 53 58 60 50 54 47 38 29 32 30 30 32 34 40 46 41 39 32 32 29 26 25 27 26 28 18 25 26 24 25 23 24 18 15 20 19 20 18 18 19
47 48 47 47 53 58 57 46 50 45 38 29 26 31 25 32 33 38 45 44 42 34 32 30 29 25 24 26 26 29 19 21 22 23 21 23 23 23 24 20 19 20 20 20
45 45 46 48 51 59 52 45 45 41 33 29 24 27 26 27 32 40 42 43 38 36 35 28 26 24 26 23 25 23 25 27 25 24 22 24 20 21 21 19 21 21 21 21
42 44 45 47 56 54 49 44 41 39 30 25 22 22 22 24 32 40 45 38 41 34 32 30 26 26 26 25 27 27 27 22 25 29 29 30 27 24 23 24 24 23 24 23
43 43 45 50 53 49 43 38 39 34 29 22 23 18 21 24 28 39 42 41 38 32 32 31 29 27 23 23 23 26 26 27 25 23 21 23 26 23 23 25 25 25 24 25
43 43 50 52 48 45 39 30 32 31 27 16 16 17 20 27 31 36 36 40 39 35 32 31 30 30 28 24 25 25 27 28 27 27 23 22 22 22 23 24 25 26 26 26
43 47 50 47 42 37 30 26 30 30 25 16 10 13 18 27 30 35 31 34 35 31 30 26 28 28 27 26 26 22 20 23 23 22 23 24 24 22 23 23 23 24 25 25
48 47 45 41 37 31 24 22 24 26 20 16 13 14 16 23 25 31 36 35 35 31 27 23 23 22 22 23 25 25 25 21 19 19 20 21 20 21 20 20 21 21 21 21
45 44 40 33 27 23 20 22 20 17 16 16 20 18 13 21 24 25 29 32 32 27 30 27 24 25 24 22 22 22 21 21 21 19 20 20 20 19 19 20 20 20 20 20
39 34 27 23 22 29 23 15 12 14 19 19 20 20 16 10 22 22 24 23 26 26 27 27 26 27 25 24 18 18 18 18 18 17 17 18 18 19 19 18 19 19 19 19
26 23 20 27 25 17 13 12 13 16 19 20 19 17 18 13 20 22 18 20 20 21 23 23 22 23 22 21 19 18 17 17 17 17 17 17 17 17 17 16 16 16 15 16
21 24 25 21 16 13 11 13 14 17 19 18 16 13 15 14 24 23 18 15 16 16 18 19 19 18 18 18 19 18 18 18 17 16 15 14 14 14 14 14 14 14 13 13
21 18 16 13 11 12 13 13 18 20 16 16 13 11 17 18 18 17 16 14 12 15 13 14 15 15 14 14 15 14 14 15 15 14 13 12 12 11 11 11 10 11 11 12
18 13 11 8 10 9 8 14 18 15 15 16 15 13 14 13 15 13 12 11 12 11 12 11 11 11 10 10 11 11 10 10 11 11 10 9 8 8 8 9 9 9 9 10
10 9 8 7 8 10 11 16 16 14 15 17 14 12 13 12 12 11 11 10 9 8 9 9 8 7 7 8 9 9 9 9 9 8 7 7 7 6 6 7 7 8 9 10
11 9 10 8 10 9 14 15 15 14 15 15 13 12 13 11 11 10 8 8 7 8 8 9 8 7 8 8 8 9 9 8 8 7 6 6 6 5 5 5 6 7 9 10
9 10 10 10 10 12 16 16 15 15 16 14 12 12 11 11 10 9 7 7 7 8 7 8 9 9 9 9 8 8 7 7 6 6 5 4 4 5 5 6 8 8 10 11
Wind_Direction
252 246 241 237 234 229 225 229 234 226 214 220 225 224 222 224 223 228 223 231 232 228 228 223 222 222 220 218 213 212 215 218 222 224 227 227 222 225 229 239 243 246 256 260
248 244 238 233 229 223 221 227 229 225 214 225 227 227 223 224 224 225 222 225 228 226 227 229 224 227 225 216 213 210 210 220 222 223 214 226 234 234 235 237 247 255 248 261
246 242 237 232 227 221 219 222 223 223 222 225 225 224 221 219 222 227 224 224 225 225 228 228 229 225 220 224 219 210 214 218 221 223 223 223 227 234 235 241 245 252 259 271
244 240 236 230 225 219 215 218 226 220 222 222 224 225 224 218 216 220 222 222 220 222 226 226 226 226 219 221 218 215 215 221 222 228 232 234 228 229 234 240 246 251 261 263
242 238 234 229 223 217 217 219 222 219 226 220 222 225 225 222 217 215 219 223 222 224 227 229 215 223 220 217 214 217 214 221 224 230 229 236 239 239 240 245 246 255 258 261
242 237 233 228 221 213 215 218 217 218 221 217 218 222 227 221 216 217 217 219 224 221 221 216 223 217 229 224 224 215 215 220 221 228 231 236 240 237 245 248 250 253 256 263
240 234 229 223 216 212 215 215 213 216 218 216 221 221 225 223 216 215 214 217 219 220 214 223 228 228 234 232 227 222 219 217 221 223 227 233 238 237 242 248 252 252 255 262
232 227 221 217 213 208 210 210 210 212 216 217 220 220 222 224 216 217 214 213 218 216 218 222 227 228 237 229 227 224 223 221 222 223 229 241 239 232 236 247 254 256 261 263
224 218 214 211 207 206 206 208 207 209 212 218 215 216 219 220 217 213 214 213 215 215 218 218 223 220 221 233 224 221 222 223 222 224 235 239 240 240 235 252 258 258 261 262
213 207 206 205 205 203 202 205 204 206 211 214 215 216 215 217 216 212 209 205 206 210 211 217 221 217 214 219 221 214 215 220 224 228 238 244 239 235 226 237 252 261 258 262
205 203 202 202 200 198 197 200 200 203 207 214 214 217 215 215 216 209 204 201 205 206 207 214 216 217 214 220 220 220 218 222 225 231 237 239 225 227 230 243 259 260 260 264
197 197 197 196 192 191 191 195 196 201 205 210 215 215 222 218 219 208 204 206 203 206 209 215 218 218 214 220 223 220 226 226 229 230 238 245 233 243 245 254 259 262 266 264
185 187 187 185 185 182 185 186 188 191 198 208 210 213 218 223 216 206 205 207 206 208 210 212 216 219 215 219 222 226 229 233 233 238 240 244 244 245 251 257 260 263 263 263
171 172 174 177 176 177 181 183 186 189 194 201 207 213 220 220 211 207 206 204 207 210 208 212 216 219 220 225 230 232 232 235 236 244 249 249 248 252 258 259 259 263 261 262
159 163 167 164 165 169 174 179 183 188 192 201 211 220 221 208 206 204 204 207 201 204 207 212 217 220 225 228 235 236 234 234 239 244 251 249 252 254 261 259 258 260 262 262
150 151 153 157 161 164 165 170 183 186 190 194 204 218 218 204 197 194 199 207 202 206 211 216 221 224 223 230 235 238 240 239 242 248 251 253 255 256 262 264 264 263 261 264
147 149 151 154 157 164 171 178 184 184 187 200 213 214 204 200 197 200 200 199 199 202 206 216 218 219 225 232 235 236 242 242 241 246 249 253 253 258 263 264 264 263 263 264
139 142 146 150 151 155 162 164 168 180 192 204 211 194 191 191 194 196 197 199 199 205 207 210 210 212 221 231 234 237 242 243 245 247 247 253 256 258 263 263 264 262 262 260
136 138 140 145 153 159 159 159 166 184 196 198 184 182 177 169 181 180 187 194 202 206 211 214 216 219 225 232 238 242 242 242 248 246 249 252 258 261 263 265 265 262 261 256
136 140 145 150 153 149 149 169 178 180 183 175 180 177 183 171 174 174 180 185 195 204 210 212 222 228 231 238 242 246 241 237 240 243 249 254 257 260 263 265 266 263 258 255
142 144 145 145 152 159 164 170 175 170 175 180 177 187 187 191 187 172 176 184 192 202 208 212 220 226 233 243 242 242 240 236 241 247 254 258 259 261 263 261 263 262 260 257
142 142 142 149 156 166 171 170 172 176 176 173 178 181 195 193 176 173 179 179 188 197 197 206 220 226 239 243 240 236 239 240 243 248 252 255 258 263 261 260 261 259 254 252
144 146 150 162 171 180 185 182 176 171 165 169 159 155 147 152 166 165 169 177 181 177 196 209 221 232 238 235 232 233 236 234 235 237 241 249 254 254 252 256 257 251 253 256
143 152 159 176 175 184 182 174 171 176 176 169 164 159 160 152 148 160 164 170 177 189 194 206 216 224 225 223 221 222 228 222 218 220 229 230 231 239 249 254 251 250 256 255
148 162 165 166 170 165 166 171 170 172 173 170 168 162 161 165 162 167 169 178 182 191 194 200 207 205 199 200 202 202 197 196 190 195 202 212 222 232 243 255 258 260 263 267
117 121 146 144 151 152 164 164 166 165 168 166 166 162 161 166 173 175 174 181 174 183 191 198 191 180 177 171 167 170 178 184 188 199 207 215 227 236 241 253 265 272 275 277
112 124 124 138 138 143 153 157 158 168 169 164 166 163 163 171 177 189 202 197 196 183 181 178 175 173 169 168 166 171 173 176 179 184 194 205 222 237 254 271 278 282 286 287